Regional Weather Roundup
Issued by NWS

Home | Current Version | Previous Version | Text Only | Print | Product List | Glossary On
Versions: 1 2 3 4 5 6 7 8 9 10 11 12 13 14 15 16 17 18 19 20 21 22 23 24 25 26 27 28 29 30 31 32 33 34 35 36 37 38 39 40 41 42 43 44 45 46 47 48 49 50
000
ASUS45 KBOU 071807
RWRCO

WEATHER ROUNDUP FOR COLORADO
NATIONAL WEATHER SERVICE DENVER/BOULDER CO
1100 AM MST SUN FEB 07 2016

NOTE: "FAIR" INDICATES FEW OR NO CLOUDS BELOW 12000 FEET WITH NO
SIGNIFICANT WEATHER AND/OR OBSTRUCTIONS TO VISIBILITY.

COZ001>005-013-030-031-071900-
...NORTHWEST COLORADO...

CITY           SKY/WX    TMP DP  RH WIND       PRES   REMARKS
CRAIG          CLOUDY    14   7  73 CALM      30.51R
HAYDEN         CLOUDY    14   7  73 W5        30.48R WCI   6
MEEKER         SUNNY     22  13  68 CALM      30.50R
MOUNT WERNER   NOT AVBL
STEAMBOAT SPGS CLOUDY    21  12  67 CALM      30.46S
WALDEN         CLOUDY    30  18  59 W14       30.36R WCI  20
$$

COZ006>008-011-071900-
...WEST CENTRAL VALLEYS...

CITY           SKY/WX    TMP DP  RH WIND       PRES   REMARKS
GRAND JUNCTION CLOUDY    22  16  78 NE3       30.56R
MONTROSE       SUNNY     29  14  53 CALM      30.53F
EAGLE          SUNNY     18   9  68 CALM      30.50S
RIFLE          SUNNY     22  12  65 CALM      30.54S
DELTA          SUNNY     28  17  63 NE5       30.55F WCI  22
NUCLA          SUNNY     28  16  59 CALM      30.54F
$$

COZ017>023-064>068-071900-
...SOUTHWEST COLORADO...

CITY           SKY/WX    TMP DP  RH WIND       PRES   REMARKS
DURANGO        CLOUDY    23  13  65 E7        30.42R WCI  15
CORTEZ         CLOUDY    35  17  47 E3        30.43S
PAGOSA SPRINGS CLOUDY    22  22  98 CALM      30.41R
TELLURIDE      CLOUDY    33  13  44 CALM      30.46F
WOLF CREEK PAS CLOUDY    27   7  43 E7G18     30.45S WCI  19
$$

COZ009-010-012-014-032>034-037-058>063-071900-
...CENTRAL COLORADO...

CITY           SKY/WX    TMP DP  RH WIND       PRES   REMARKS
ASPEN          CLOUDY    29  15  56 CALM      30.44S
BUENA VISTA    CLOUDY    38  13  36 NW20G35   30.30S
COPPER MTN     CLOUDY    19   9  63 W15G31    30.38R HAZE    WCI   5
BERTHOUD PASS  LGT SNOW   9   0  66 NW43      30.28F WCI -17
COTTONWOOD PAS CLOUDY    34   5  29 SW45G63   30.28F WCI  18
GUNNISON       CLOUDY     0  -8  71 E7        30.56S WCI -13
KREMMLING      CLOUDY    28  14  54 S5        30.43R WCI  23
LEADVILLE      CLOUDY    27   8  44 NW16G26   30.39R WCI  15
MONARCH PASS   CLOUDY    18  10  73 MISG      30.47F
SALIDA         NOT AVBL
SUNLIGHT       SUNNY     23  18  80 W5          N/A  WCI  17
WILKERSON PASS SUNNY     25   7  46 NW13G35   30.34S WCI  13
$$

COZ069>075-071900-
...SAN LUIS VALLEY/SANGRE DE CRISTO MOUNTAINS...

CITY           SKY/WX    TMP DP  RH WIND       PRES   REMARKS
ALAMOSA        CLOUDY    26  13  57 S5        30.38F WCI  20
LA VETA PASS   CLOUDY    32  10  40 SW10G23   30.30F WCI  24
SAGUACHE       SUNNY     41  14  33 NE8       30.37F
$$

COZ035-036-038>040-071900-
...NORTHERN COLORADO FRONT RANGE...

CITY           SKY/WX    TMP DP  RH WIND       PRES   REMARKS
DENVER INTL AP MOSUNNY   30  20  66 E17       30.34R WCI  18
DMNS CITY PARK   N/A     31  19  60 E16       30.34R WCI  20
AURORA         MOSUNNY   29  19  66 E13G24    30.34R WCI  19
FRONT RANGE AP MOSUNNY   28  19  69 NE12      30.35R WCI  18
ERIE MUNI ARPT SUNNY     32  20  59 E9        30.36R WCI  25
BOULDER MUN AP SUNNY     34  19  55 CALM      30.35R
CENTENNIAL     PTSUNNY   29  19  66 E13       30.32R WCI  19
BROOMFIELD     NOT AVBL
FORT COLLINS   SUNNY     30  19  64 S16       30.34R WCI  19
LONGMONT       SUNNY     37  20  50 SE6       30.38S
$$

COZ041-046-047-076>085-087-088-071900-
...PIKES PEAK/PALMER DIVIDE AND SOUTHERN FOOTHILLS...

CITY           SKY/WX    TMP DP  RH WIND       PRES   REMARKS
COLO. SPRINGS  MOSUNNY   33  19  56 SE6       30.31R WCI  28
A. F. ACADEMY  SUNNY     37  18  45 S7        30.27S
SCHRIEVER AFB  FAIR      31  20  65 E2        30.32R
ELLICOTT       NOT AVBL
FALCON         SUNNY     29  16  60 NE15      30.32R WCI  17
FORT CARSON    SUNNY     34  21  58 E7        30.30R WCI  28
LIMON          MOSUNNY   27  20  75 N13       30.35R WCI  16
MONUMENT HILL  SUNNY     27  16  63 E13       30.32R WCI  16
TRINIDAD       SUNNY     46  19  34 VRB3      30.28F
$$

COZ042>045-048>051-090-091-071900-
...NORTHEAST COLORADO...

CITY           SKY/WX    TMP DP  RH WIND       PRES   REMARKS
GREELEY ARPT   SUNNY     32  25  74 NE9       30.34S WCI  24
AKRON          CLOUDY    29  21  72 N22       30.33R WCI  15
BURLINGTON     SUNNY     33  21  61 NW18      30.34R WCI  22
WRAY           CLOUDY    36  25  65 NW21G30   30.33S
STERLING       CLOUDY    32  27  80 N23G30    30.33S WCI  19
HOLYOKE        MOSUNNY   37  28  70 NW17      30.31F
FORT MORGAN    CLOUDY    34  22  60 N13       30.36R WCI  25
$$

COZ086-089-092>099-071900-
...SOUTHEAST COLORADO...

CITY           SKY/WX    TMP DP  RH WIND       PRES   REMARKS
PUEBLO         SUNNY     42  24  49 NE15      30.31R
LA JUNTA       SUNNY     42  26  53 NE18      30.35R
LAMAR          SUNNY     45  18  34 N18G26    30.34R
SPRINGFIELD      N/A     47  18  31 N17       30.30R
$$



USA.gov is the U.S. government's official web portal to all federal, state and local government web resources and services.